GFSCGP_500_temp_132.txt.gz
Temp
-10 -9 -9 -8 -9 -9 -9 -9 -8 -8 -6 -6 -6 -6 -6 -6 -6 -6 -6 -7 -6 -6 -6 -7 -7 -7 -7 -7 -8 -8 -8 -8 -8 -8 -8 -8 -8 -8 -8 -7 -8 -7 -8 -8
-10 -10 -10 -9 -10 -10 -10 -9 -9 -8 -8 -6 -6 -6 -6 -6 -6 -6 -7 -7 -6 -6 -6 -6 -6 -7 -7 -7 -8 -8 -7 -7 -7 -8 -7 -7 -8 -8 -8 -8 -8 -8 -8 -8
-11 -11 -11 -11 -11 -11 -10 -10 -9 -8 -8 -7 -7 -6 -6 -6 -6 -6 -7 -6 -7 -6 -6 -6 -6 -7 -7 -7 -7 -8 -8 -7 -7 -7 -8 -8 -8 -8 -7 -8 -8 -8 -8 -8
-11 -11 -11 -12 -12 -11 -10 -10 -10 -9 -8 -7 -7 -7 -6 -6 -6 -5 -6 -6 -7 -6 -6 -6 -5 -6 -7 -7 -7 -8 -7 -7 -7 -7 -7 -8 -7 -7 -7 -7 -8 -8 -7 -8
-11 -11 -11 -11 -11 -11 -11 -10 -10 -8 -8 -7 -7 -7 -6 -6 -6 -6 -5 -6 -7 -7 -6 -6 -5 -6 -7 -7 -7 -8 -7 -7 -7 -7 -7 -8 -7 -7 -7 -7 -7 -7 -7 -8
-11 -11 -11 -12 -11 -11 -11 -10 -10 -10 -9 -9 -8 -7 -7 -6 -6 -6 -6 -7 -6 -7 -6 -6 -5 -5 -6 -7 -7 -7 -8 -8 -7 -7 -7 -7 -7 -7 -7 -7 -8 -7 -7 -7
-12 -11 -12 -12 -11 -10 -10 -10 -10 -10 -10 -8 -8 -8 -7 -7 -5 -5 -6 -6 -7 -7 -6 -5 -6 -6 -6 -7 -7 -7 -8 -8 -8 -7 -7 -7 -7 -7 -7 -7 -7 -7 -7 -7
-12 -12 -12 -12 -12 -12 -11 -11 -11 -11 -11 -9 -9 -8 -8 -7 -6 -6 -6 -7 -8 -6 -6 -5 -6 -6 -6 -6 -6 -7 -7 -7 -7 -8 -8 -7 -7 -7 -7 -7 -7 -7 -7 -8
-12 -13 -13 -12 -12 -12 -12 -11 -11 -11 -9 -9 -10 -8 -8 -7 -7 -5 -6 -6 -6 -6 -5 -5 -5 -6 -6 -6 -6 -7 -7 -7 -7 -7 -7 -7 -7 -7 -7 -7 -7 -7 -7 -7
-12 -13 -13 -13 -12 -12 -12 -12 -11 -12 -10 -10 -10 -9 -8 -7 -7 -7 -7 -7 -7 -7 -6 -5 -5 -6 -6 -6 -5 -6 -6 -7 -6 -7 -6 -6 -7 -7 -7 -7 -7 -7 -7 -7
-12 -13 -13 -13 -13 -12 -12 -11 -11 -11 -10 -11 -11 -10 -10 -10 -8 -8 -8 -7 -8 -8 -7 -6 -6 -6 -6 -6 -5 -6 -6 -6 -7 -7 -7 -6 -6 -7 -7 -7 -7 -7 -7 -7
-13 -13 -13 -13 -13 -13 -12 -12 -12 -11 -11 -10 -10 -10 -11 -10 -10 -9 -8 -8 -8 -8 -7 -6 -8 -7 -6 -6 -6 -6 -6 -6 -6 -6 -7 -7 -7 -6 -6 -7 -6 -6 -7 -7
-13 -13 -13 -13 -13 -13 -13 -12 -12 -11 -11 -10 -10 -9 -10 -10 -10 -10 -10 -9 -8 -8 -7 -7 -6 -6 -7 -6 -6 -6 -6 -6 -6 -6 -6 -6 -7 -7 -6 -7 -6 -6 -6 -6
-13 -13 -13 -13 -13 -13 -13 -12 -12 -11 -11 -10 -11 -10 -11 -9 -9 -10 -10 -10 -9 -8 -7 -7 -6 -7 -8 -7 -6 -7 -6 -7 -7 -6 -6 -6 -6 -6 -6 -6 -7 -7 -7 -7
-14 -13 -13 -13 -13 -13 -13 -12 -12 -12 -11 -10 -10 -10 -10 -10 -9 -9 -10 -9 -10 -9 -8 -8 -8 -7 -8 -8 -7 -7 -7 -7 -7 -6 -7 -7 -7 -7 -7 -7 -7 -6 -6 -6
-14 -13 -13 -13 -13 -13 -13 -13 -12 -13 -11 -11 -10 -10 -10 -10 -10 -9 -9 -9 -9 -9 -9 -8 -8 -9 -9 -8 -8 -7 -7 -7 -7 -7 -7 -7 -6 -7 -7 -6 -6 -7 -7 -6
-14 -14 -14 -13 -13 -13 -13 -12 -12 -12 -12 -11 -11 -10 -10 -11 -11 -9 -9 -8 -9 -9 -9 -9 -9 -9 -10 -9 -8 -8 -7 -7 -7 -7 -7 -7 -7 -7 -7 -7 -6 -6 -6 -6
-14 -14 -14 -14 -14 -13 -13 -13 -13 -13 -12 -12 -11 -11 -10 -11 -11 -10 -9 -8 -8 -9 -9 -9 -9 -9 -9 -8 -8 -8 -7 -7 -7 -7 -7 -6 -7 -7 -6 -7 -6 -6 -7 -7
-15 -14 -14 -14 -14 -13 -14 -13 -13 -12 -12 -12 -12 -11 -11 -11 -11 -10 -10 -9 -9 -9 -9 -9 -10 -9 -9 -9 -8 -8 -7 -7 -7 -7 -6 -7 -6 -6 -6 -6 -6 -6 -6 -6
-15 -15 -15 -14 -14 -14 -14 -13 -13 -13 -13 -12 -12 -12 -12 -12 -11 -11 -10 -9 -10 -9 -9 -9 -8 -8 -7 -7 -7 -7 -7 -7 -7 -5 -6 -7 -6 -7 -7 -7 -7 -7 -7 -7
-15 -15 -15 -15 -15 -14 -14 -14 -13 -13 -13 -13 -12 -12 -12 -11 -12 -11 -11 -10 -10 -10 -9 -9 -9 -9 -8 -8 -8 -6 -7 -8 -7 -7 -7 -6 -7 -7 -7 -7 -7 -7 -7 -7
-15 -15 -15 -14 -14 -14 -14 -14 -14 -13 -13 -13 -12 -12 -12 -12 -12 -12 -11 -11 -11 -10 -10 -10 -9 -9 -9 -8 -8 -8 -8 -9 -8 -7 -8 -7 -7 -7 -8 -7 -7 -7 -8 -7
-15 -15 -15 -15 -15 -15 -15 -14 -14 -14 -14 -13 -13 -13 -12 -12 -12 -12 -11 -11 -11 -11 -11 -11 -11 -10 -9 -9 -9 -10 -10 -10 -10 -9 -10 -9 -9 -9 -8 -8 -8 -8 -8 -8
-15 -15 -15 -15 -15 -14 -14 -15 -14 -14 -14 -13 -13 -13 -12 -12 -12 -12 -11 -11 -11 -11 -11 -11 -11 -10 -10 -10 -10 -10 -10 -10 -9 -9 -9 -9 -10 -9 -9 -8 -8 -8 -9 -8
-15 -15 -14 -15 -15 -14 -14 -14 -14 -14 -14 -13 -13 -13 -13 -12 -12 -12 -12 -12 -11 -11 -11 -11 -11 -11 -11 -10 -10 -10 -10 -9 -10 -9 -9 -10 -10 -10 -9 -9 -9 -9 -9 -9
-15 -15 -15 -14 -15 -15 -14 -14 -15 -14 -14 -13 -14 -14 -12 -12 -12 -13 -12 -11 -12 -11 -11 -11 -11 -11 -11 -12 -11 -10 -10 -9 -10 -10 -10 -11 -10 -10 -10 -10 -10 -10 -10 -10

GFSCGP_500_temp_138.txt.gz
Temp
-9 -9 -10 -10 -9 -9 -9 -8 -8 -8 -7 -7 -7 -6 -6 -6 -6 -6 -7 -6 -6 -7 -7 -7 -7 -7 -7 -7 -7 -7 -8 -8 -7 -7 -7 -8 -8 -8 -8 -8 -8 -8 -8 -7
-9 -9 -9 -10 -10 -10 -10 -10 -9 -8 -7 -8 -7 -6 -6 -6 -6 -6 -6 -6 -6 -6 -7 -7 -7 -7 -7 -7 -7 -7 -7 -7 -7 -7 -7 -7 -7 -8 -8 -8 -8 -8 -8 -8
-9 -9 -9 -10 -10 -10 -10 -10 -10 -9 -8 -8 -9 -7 -6 -6 -6 -6 -6 -6 -6 -6 -6 -7 -6 -7 -7 -7 -7 -7 -7 -7 -7 -7 -7 -7 -7 -7 -7 -7 -7 -8 -8 -8
-9 -9 -10 -10 -10 -11 -12 -11 -10 -10 -9 -9 -8 -8 -7 -6 -6 -6 -6 -6 -6 -6 -5 -6 -6 -6 -6 -6 -6 -6 -7 -7 -7 -7 -7 -6 -7 -7 -7 -7 -7 -8 -8 -8
-9 -10 -10 -10 -11 -11 -12 -10 -10 -10 -10 -9 -9 -8 -7 -7 -6 -6 -6 -6 -6 -6 -6 -6 -6 -6 -6 -6 -6 -6 -6 -7 -7 -7 -7 -7 -7 -7 -7 -7 -7 -7 -7 -7
-10 -10 -10 -11 -10 -11 -11 -11 -11 -10 -10 -10 -9 -9 -8 -7 -6 -6 -6 -6 -6 -6 -6 -6 -6 -6 -6 -6 -6 -6 -6 -6 -6 -7 -6 -7 -7 -7 -6 -6 -7 -7 -7 -7
-10 -11 -11 -11 -11 -11 -11 -11 -12 -12 -11 -11 -9 -9 -9 -8 -7 -7 -6 -7 -6 -6 -6 -6 -6 -6 -6 -6 -6 -6 -6 -6 -6 -6 -6 -7 -6 -6 -6 -7 -7 -6 -7 -7
-12 -11 -11 -11 -11 -11 -11 -12 -11 -11 -11 -10 -10 -10 -9 -8 -7 -7 -6 -7 -6 -5 -6 -6 -6 -6 -6 -6 -6 -6 -6 -6 -6 -6 -6 -7 -7 -7 -7 -7 -7 -7 -7 -7
-12 -12 -11 -12 -11 -11 -12 -11 -12 -10 -11 -11 -11 -9 -9 -8 -8 -7 -7 -6 -6 -6 -6 -6 -6 -6 -6 -6 -6 -6 -6 -6 -6 -6 -6 -6 -6 -6 -6 -6 -6 -6 -7 -7
-12 -13 -12 -12 -12 -12 -12 -12 -12 -12 -10 -10 -11 -9 -10 -8 -8 -7 -7 -6 -6 -6 -5 -6 -6 -6 -6 -6 -6 -6 -6 -6 -6 -6 -6 -6 -6 -6 -6 -6 -6 -6 -6 -7
-12 -12 -13 -12 -13 -12 -13 -13 -12 -12 -10 -9 -10 -11 -10 -11 -9 -8 -7 -6 -6 -6 -6 -6 -6 -6 -6 -6 -6 -6 -6 -6 -6 -7 -7 -6 -6 -6 -6 -6 -6 -6 -6 -7
-12 -13 -14 -13 -13 -13 -13 -13 -11 -12 -11 -11 -11 -11 -11 -11 -10 -8 -6 -5 -6 -8 -6 -6 -6 -6 -6 -6 -6 -6 -6 -6 -6 -6 -6 -6 -6 -6 -7 -6 -6 -7 -7 -7
-12 -13 -13 -14 -14 -13 -13 -13 -13 -12 -12 -11 -12 -11 -11 -11 -11 -10 -9 -6 -7 -6 -8 -7 -6 -6 -6 -6 -6 -6 -6 -6 -6 -6 -6 -6 -6 -6 -6 -6 -7 -7 -7 -7
-12 -12 -13 -13 -12 -12 -13 -13 -13 -13 -12 -12 -12 -12 -12 -12 -11 -11 -10 -10 -7 -6 -8 -7 -7 -6 -6 -6 -6 -6 -6 -6 -7 -7 -7 -7 -7 -7 -6 -6 -7 -7 -7 -7
-12 -12 -12 -13 -13 -13 -13 -14 -14 -13 -13 -13 -12 -11 -12 -11 -11 -12 -11 -10 -10 -7 -7 -7 -7 -7 -7 -6 -6 -6 -6 -6 -6 -6 -7 -7 -7 -7 -7 -7 -7 -7 -7 -7
-13 -13 -12 -13 -13 -14 -14 -14 -14 -13 -13 -12 -12 -11 -11 -11 -11 -11 -11 -10 -10 -10 -10 -9 -8 -7 -7 -6 -6 -7 -7 -6 -6 -6 -6 -6 -6 -6 -6 -6 -7 -6 -7 -6
-13 -13 -13 -13 -13 -13 -14 -14 -14 -14 -14 -13 -13 -12 -11 -11 -10 -11 -10 -10 -10 -10 -10 -10 -9 -8 -8 -8 -7 -7 -7 -7 -6 -6 -7 -7 -6 -6 -7 -6 -6 -7 -7 -7
-13 -13 -13 -14 -13 -14 -15 -14 -14 -14 -14 -13 -13 -12 -12 -11 -11 -11 -10 -10 -10 -10 -9 -9 -10 -8 -8 -7 -7 -7 -7 -7 -6 -7 -7 -7 -7 -7 -7 -7 -7 -7 -7 -6
-13 -14 -14 -14 -15 -15 -14 -14 -14 -14 -13 -13 -13 -12 -12 -11 -11 -11 -10 -10 -10 -10 -9 -9 -9 -9 -8 -7 -7 -7 -6 -8 -7 -8 -7 -7 -7 -6 -7 -7 -7 -7 -7 -7
-14 -14 -14 -16 -14 -15 -15 -14 -14 -14 -13 -14 -13 -12 -12 -12 -11 -10 -10 -11 -11 -11 -10 -9 -9 -9 -10 -9 -8 -8 -8 -9 -8 -9 -8 -8 -7 -7 -7 -7 -7 -6 -7 -6
-14 -14 -14 -15 -14 -15 -14 -15 -14 -14 -15 -13 -13 -12 -12 -12 -12 -11 -11 -10 -10 -10 -10 -10 -9 -9 -9 -9 -10 -9 -9 -8 -8 -8 -8 -8 -7 -7 -6 -6 -6 -7 -6 -6
-14 -15 -15 -14 -15 -15 -15 -15 -15 -15 -14 -14 -13 -13 -12 -12 -12 -12 -11 -11 -10 -10 -10 -10 -10 -9 -9 -10 -9 -9 -9 -9 -9 -9 -9 -9 -8 -7 -7 -7 -5 -7 -7 -6
-14 -14 -15 -15 -15 -15 -15 -15 -15 -15 -14 -14 -13 -13 -13 -12 -12 -11 -11 -11 -11 -11 -11 -11 -10 -10 -10 -10 -9 -9 -9 -9 -9 -8 -8 -8 -8 -7 -7 -7 -7 -7 -7 -7
-14 -14 -14 -14 -15 -15 -15 -15 -14 -15 -14 -14 -14 -13 -12 -12 -12 -12 -11 -11 -11 -11 -11 -11 -11 -10 -10 -10 -10 -9 -9 -10 -10 -9 -9 -9 -8 -8 -8 -7 -7 -7 -7 -8
-14 -14 -14 -14 -14 -15 -15 -14 -15 -15 -15 -15 -14 -13 -13 -13 -13 -12 -12 -12 -12 -12 -11 -11 -11 -11 -11 -10 -10 -10 -10 -10 -10 -10 -10 -10 -10 -10 -9 -8 -8 -9 -9 -8
-14 -14 -14 -15 -14 -14 -14 -15 -15 -15 -15 -15 -14 -14 -13 -13 -13 -12 -12 -12 -12 -11 -11 -12 -12 -11 -11 -11 -11 -11 -11 -11 -11 -11 -11 -10 -10 -10 -10 -9 -9 -10 -10 -10

GFSCGP_500_temp_141.txt.gz
Temp
-7 -8 -9 -11 -10 -9 -8 -8 -7 -7 -7 -7 -7 -6 -6 -6 -6 -7 -6 -6 -6 -6 -6 -7 -7 -7 -7 -7 -7 -7 -7 -7 -7 -8 -7 -8 -8 -8 -8 -8 -8 -8 -7 -7
-8 -8 -10 -11 -10 -9 -10 -9 -8 -8 -7 -7 -7 -6 -6 -6 -6 -7 -6 -6 -6 -6 -6 -6 -7 -7 -7 -7 -7 -7 -7 -7 -7 -8 -7 -7 -8 -7 -8 -8 -8 -7 -7 -7
-9 -11 -9 -9 -9 -9 -9 -10 -9 -10 -8 -8 -7 -7 -6 -6 -7 -7 -7 -6 -5 -5 -6 -6 -6 -6 -7 -7 -7 -7 -7 -7 -7 -7 -7 -7 -7 -7 -7 -7 -7 -7 -7 -7
-9 -9 -9 -9 -9 -10 -11 -10 -10 -9 -10 -9 -8 -9 -7 -6 -6 -6 -6 -5 -6 -5 -6 -6 -6 -6 -6 -6 -7 -7 -7 -7 -7 -7 -7 -7 -7 -7 -7 -7 -7 -7 -8 -8
-11 -8 -9 -9 -10 -11 -11 -10 -10 -12 -11 -10 -10 -9 -8 -7 -7 -6 -6 -6 -6 -6 -6 -6 -6 -6 -6 -6 -6 -6 -6 -6 -7 -6 -7 -7 -7 -7 -7 -7 -7 -7 -7 -7
-9 -9 -9 -10 -10 -9 -10 -10 -10 -11 -11 -10 -9 -9 -8 -7 -7 -6 -6 -6 -6 -5 -6 -6 -6 -6 -6 -6 -6 -6 -6 -6 -6 -6 -7 -7 -7 -7 -7 -7 -7 -7 -7 -7
-10 -9 -10 -10 -10 -10 -10 -11 -11 -10 -10 -9 -8 -9 -8 -7 -7 -7 -6 -7 -6 -5 -6 -6 -7 -7 -6 -6 -6 -6 -6 -6 -6 -6 -6 -6 -6 -6 -7 -7 -7 -7 -6 -7
-11 -12 -10 -10 -10 -12 -10 -11 -9 -9 -9 -9 -9 -9 -9 -8 -7 -7 -7 -6 -7 -6 -7 -5 -6 -7 -6 -6 -6 -6 -6 -6 -6 -6 -6 -6 -6 -6 -6 -6 -6 -6 -6 -7
-11 -12 -12 -10 -10 -10 -11 -10 -10 -10 -9 -10 -9 -9 -9 -9 -8 -7 -7 -7 -7 -8 -6 -6 -6 -6 -6 -6 -6 -6 -6 -6 -6 -6 -6 -6 -6 -6 -6 -6 -6 -6 -6 -7
-12 -12 -12 -11 -10 -10 -10 -11 -11 -10 -10 -9 -8 -9 -9 -9 -8 -7 -7 -7 -7 -7 -6 -6 -6 -5 -5 -5 -6 -6 -6 -6 -6 -6 -6 -6 -6 -6 -6 -6 -6 -6 -7 -7
-12 -12 -12 -12 -11 -12 -11 -12 -11 -10 -9 -10 -8 -8 -9 -9 -9 -8 -7 -7 -6 -6 -7 -6 -6 -5 -5 -5 -5 -6 -6 -6 -6 -6 -6 -6 -6 -6 -6 -6 -7 -7 -7 -7
-13 -12 -12 -12 -12 -12 -11 -11 -11 -10 -10 -10 -10 -9 -10 -10 -9 -8 -8 -6 -5 -6 -6 -6 -7 -6 -5 -5 -5 -6 -6 -6 -7 -6 -6 -6 -6 -7 -7 -6 -6 -7 -7 -7
-11 -12 -12 -12 -12 -12 -12 -12 -11 -11 -10 -10 -10 -9 -11 -10 -10 -8 -8 -6 -6 -7 -6 -6 -8 -6 -5 -5 -6 -6 -6 -6 -7 -7 -6 -6 -6 -6 -6 -6 -6 -6 -6 -6
-12 -12 -13 -12 -11 -11 -11 -11 -11 -11 -11 -11 -10 -10 -10 -10 -11 -10 -9 -7 -7 -7 -6 -6 -7 -6 -6 -6 -6 -6 -6 -6 -6 -7 -7 -7 -7 -7 -6 -6 -7 -7 -7 -7
-12 -12 -12 -12 -12 -13 -13 -12 -12 -11 -12 -11 -11 -11 -11 -11 -11 -10 -9 -9 -8 -7 -7 -6 -7 -7 -6 -6 -6 -6 -6 -6 -6 -6 -6 -6 -6 -6 -7 -7 -7 -7 -6 -6
-12 -12 -12 -12 -12 -12 -12 -13 -13 -12 -11 -11 -11 -10 -10 -10 -11 -10 -10 -10 -10 -8 -7 -7 -7 -6 -6 -6 -6 -6 -6 -6 -6 -6 -6 -6 -6 -6 -6 -6 -6 -7 -7 -7
-12 -12 -12 -12 -13 -14 -14 -13 -13 -13 -12 -12 -11 -12 -11 -10 -11 -11 -10 -9 -10 -8 -8 -7 -7 -7 -7 -7 -7 -7 -6 -6 -6 -6 -6 -6 -6 -6 -6 -6 -6 -6 -6 -6
-12 -13 -12 -12 -13 -14 -14 -13 -13 -13 -12 -12 -12 -10 -11 -11 -11 -11 -11 -11 -9 -11 -10 -10 -11 -10 -8 -7 -7 -7 -6 -6 -7 -7 -7 -6 -7 -7 -7 -7 -7 -7 -6 -6
-13 -13 -13 -15 -14 -14 -14 -14 -13 -13 -12 -13 -12 -11 -12 -11 -11 -11 -11 -11 -11 -10 -10 -12 -10 -10 -9 -7 -7 -7 -7 -7 -7 -7 -7 -7 -7 -7 -7 -7 -7 -7 -7 -7
-13 -13 -13 -15 -15 -14 -14 -13 -12 -13 -12 -12 -12 -11 -10 -11 -11 -11 -11 -11 -11 -11 -10 -11 -10 -10 -10 -9 -8 -6 -7 -7 -7 -7 -7 -8 -9 -8 -7 -7 -7 -7 -7 -6
-14 -13 -15 -15 -15 -15 -15 -13 -13 -14 -14 -13 -13 -12 -11 -11 -11 -11 -12 -11 -11 -11 -11 -10 -10 -10 -10 -10 -9 -7 -7 -7 -7 -6 -7 -8 -8 -8 -8 -8 -7 -7 -6 -6
-14 -15 -15 -15 -15 -14 -14 -14 -14 -14 -14 -14 -13 -13 -11 -12 -12 -11 -11 -11 -11 -10 -10 -10 -10 -10 -9 -9 -10 -10 -8 -8 -7 -8 -7 -8 -8 -8 -8 -7 -7 -5 -5 -5
-14 -14 -14 -14 -15 -15 -14 -14 -14 -13 -14 -14 -14 -12 -9 -11 -12 -12 -11 -11 -10 -11 -11 -10 -10 -11 -10 -10 -10 -9 -10 -10 -10 -10 -10 -9 -8 -8 -7 -7 -7 -6 -6 -7
-14 -14 -14 -14 -14 -14 -14 -14 -14 -14 -14 -14 -14 -13 -14 -13 -12 -12 -12 -11 -11 -10 -10 -11 -10 -10 -10 -10 -10 -10 -11 -10 -9 -9 -9 -8 -8 -8 -7 -7 -6 -6 -7 -7
-16 -13 -14 -14 -15 -14 -14 -14 -14 -14 -14 -14 -14 -14 -13 -13 -12 -12 -12 -12 -11 -11 -11 -11 -11 -11 -11 -10 -10 -10 -10 -10 -10 -10 -9 -9 -9 -9 -8 -8 -8 -8 -8 -8
-14 -14 -14 -15 -15 -14 -14 -14 -14 -14 -14 -14 -14 -14 -14 -13 -13 -13 -12 -12 -11 -11 -12 -12 -11 -11 -11 -11 -11 -11 -11 -11 -11 -11 -11 -10 -10 -10 -10 -9 -9 -9 -9 -9

GFSCGP_500_temp_147.txt.gz
Temp
-6 -7 -7 -8 -8 -9 -8 -9 -8 -8 -7 -7 -7 -7 -6 -5 -5 -6 -6 -6 -6 -6 -6 -7 -6 -7 -7 -7 -7 -7 -7 -7 -6 -7 -7 -6 -8 -7 -7 -7 -7 -7 -7 -7
-7 -8 -8 -7 -10 -9 -8 -9 -8 -6 -7 -7 -8 -7 -6 -5 -6 -5 -5 -6 -6 -6 -6 -6 -6 -7 -7 -7 -7 -7 -7 -6 -7 -7 -7 -7 -7 -7 -7 -7 -6 -7 -7 -7
-7 -7 -9 -8 -11 -10 -9 -9 -9 -7 -7 -6 -8 -7 -7 -5 -6 -6 -5 -5 -5 -6 -6 -6 -5 -6 -6 -7 -7 -6 -7 -6 -7 -7 -6 -7 -7 -7 -7 -6 -6 -7 -7 -7
-8 -7 -8 -8 -9 -9 -11 -9 -10 -10 -8 -8 -8 -7 -7 -6 -6 -6 -5 -6 -6 -6 -7 -6 -6 -6 -6 -6 -7 -7 -7 -6 -6 -7 -6 -7 -7 -7 -7 -7 -7 -6 -6 -6
-9 -8 -8 -8 -8 -9 -11 -10 -11 -10 -9 -10 -9 -8 -7 -7 -6 -6 -7 -6 -7 -6 -6 -7 -6 -6 -6 -6 -6 -6 -6 -7 -6 -6 -6 -6 -7 -7 -6 -6 -6 -6 -6 -7
-9 -10 -9 -8 -8 -9 -9 -10 -9 -10 -10 -9 -10 -9 -8 -8 -7 -7 -7 -6 -6 -5 -6 -6 -6 -6 -6 -6 -6 -6 -7 -6 -6 -6 -6 -6 -6 -7 -6 -6 -6 -6 -6 -6
-10 -9 -9 -10 -9 -8 -9 -9 -9 -9 -9 -8 -9 -8 -7 -8 -7 -6 -6 -6 -6 -5 -4 -6 -6 -6 -6 -6 -5 -6 -6 -6 -6 -6 -6 -6 -6 -6 -6 -7 -6 -6 -6 -6
-11 -11 -10 -9 -10 -9 -9 -9 -10 -10 -9 -10 -9 -8 -7 -7 -8 -7 -5 -5 -5 -5 -5 -6 -6 -6 -5 -5 -5 -5 -6 -6 -6 -6 -5 -5 -5 -6 -6 -6 -6 -7 -7 -7
-11 -11 -11 -10 -10 -10 -10 -10 -11 -10 -10 -9 -9 -9 -8 -7 -6 -6 -5 -5 -4 -5 -5 -5 -6 -5 -6 -5 -6 -5 -6 -6 -6 -6 -6 -6 -5 -6 -6 -6 -6 -7 -7 -7
-10 -10 -11 -11 -10 -10 -10 -9 -10 -11 -11 -10 -9 -9 -9 -8 -6 -7 -5 -7 -6 -4 -5 -5 -5 -5 -6 -6 -6 -5 -6 -5 -6 -6 -6 -6 -6 -6 -6 -6 -6 -6 -6 -7
-10 -9 -10 -11 -11 -10 -11 -10 -10 -10 -10 -10 -9 -9 -9 -10 -6 -7 -7 -7 -7 -5 -5 -5 -5 -5 -5 -6 -6 -6 -6 -5 -6 -6 -6 -6 -6 -6 -6 -6 -6 -6 -6 -7
-10 -9 -10 -9 -11 -11 -11 -11 -11 -11 -10 -10 -9 -8 -9 -9 -9 -7 -7 -7 -8 -7 -5 -5 -5 -5 -4 -5 -5 -6 -6 -5 -5 -6 -6 -6 -6 -6 -6 -6 -6 -6 -6 -7
-10 -10 -10 -11 -11 -11 -11 -10 -11 -11 -10 -10 -10 -10 -9 -9 -9 -7 -8 -7 -8 -8 -8 -5 -5 -5 -4 -5 -5 -6 -5 -6 -6 -5 -6 -6 -6 -6 -6 -6 -6 -6 -6 -6
-10 -10 -10 -10 -10 -11 -10 -11 -11 -11 -11 -10 -9 -9 -10 -9 -8 -8 -8 -8 -11 -9 -8 -7 -5 -4 -5 -4 -5 -5 -5 -6 -5 -6 -5 -5 -6 -6 -6 -6 -6 -6 -6 -6
-10 -10 -11 -11 -10 -10 -10 -10 -10 -11 -11 -11 -10 -9 -10 -10 -9 -10 -10 -10 -10 -10 -9 -7 -5 -4 -4 -5 -4 -4 -5 -5 -5 -5 -6 -5 -6 -6 -6 -6 -6 -6 -6 -6
-10 -10 -10 -11 -11 -11 -11 -10 -11 -11 -11 -11 -10 -10 -10 -10 -10 -10 -10 -9 -9 -10 -9 -9 -7 -6 -5 -5 -5 -5 -5 -5 -6 -5 -6 -6 -6 -6 -6 -6 -6 -6 -6 -6
-10 -10 -10 -10 -11 -11 -10 -11 -12 -13 -12 -12 -12 -10 -10 -9 -10 -10 -10 -9 -10 -10 -9 -9 -7 -7 -6 -5 -4 -5 -6 -6 -6 -6 -6 -6 -5 -6 -6 -6 -6 -6 -6 -6
-12 -12 -11 -10 -11 -11 -11 -12 -12 -12 -11 -12 -12 -10 -10 -10 -10 -9 -9 -10 -11 -9 -9 -9 -7 -7 -6 -6 -5 -6 -6 -6 -6 -6 -6 -6 -6 -6 -6 -6 -6 -6 -6 -6
-12 -11 -11 -11 -11 -11 -12 -12 -12 -11 -12 -12 -13 -13 -12 -11 -10 -10 -10 -11 -8 -9 -8 -8 -8 -7 -7 -7 -6 -6 -6 -5 -5 -6 -6 -6 -6 -6 -6 -6 -6 -6 -6 -6
-12 -12 -12 -12 -12 -12 -12 -11 -11 -12 -13 -12 -13 -13 -12 -12 -12 -10 -10 -9 -9 -10 -8 -8 -8 -8 -7 -7 -6 -6 -6 -6 -6 -7 -6 -6 -6 -6 -6 -6 -6 -6 -6 -6
-13 -13 -12 -12 -12 -12 -11 -12 -11 -12 -12 -12 -12 -12 -11 -11 -12 -12 -11 -10 -9 -9 -10 -9 -9 -8 -8 -7 -6 -6 -6 -7 -5 -6 -7 -6 -6 -6 -7 -7 -6 -6 -6 -6
-13 -13 -13 -14 -13 -12 -12 -12 -12 -12 -12 -12 -12 -12 -11 -11 -11 -11 -11 -10 -9 -10 -10 -10 -10 -10 -10 -9 -8 -7 -7 -7 -6 -5 -5 -7 -7 -7 -7 -8 -7 -7 -7 -7
-13 -13 -13 -14 -13 -12 -12 -13 -12 -12 -12 -12 -12 -12 -12 -12 -12 -11 -11 -11 -11 -10 -9 -10 -10 -11 -11 -11 -10 -8 -8 -8 -6 -6 -6 -6 -7 -7 -7 -7 -7 -7 -8 -8
-13 -13 -13 -13 -13 -12 -12 -12 -12 -12 -12 -12 -12 -13 -12 -12 -13 -12 -11 -11 -13 -12 -11 -10 -10 -10 -10 -11 -10 -11 -10 -10 -9 -9 -7 -7 -7 -7 -7 -7 -6 -7 -8 -8
-13 -13 -13 -13 -13 -13 -12 -12 -12 -13 -13 -13 -12 -13 -13 -13 -12 -13 -12 -12 -11 -10 -10 -10 -11 -11 -11 -11 -11 -11 -10 -9 -9 -8 -8 -8 -7 -7 -7 -7 -7 -8 -10 -10
-13 -13 -13 -14 -13 -12 -13 -12 -13 -13 -13 -13 -13 -13 -13 -13 -12 -13 -13 -12 -12 -12 -12 -11 -11 -11 -11 -11 -10 -10 -10 -9 -9 -9 -9 -9 -9 -10 -10 -10 -11 -11 -10 -10